GFSSW_850_thetae_159.txt.gz
Theta_e
302 302 302 302 302 302 302 302 302 303 303 303 303 302 302 303 303 306 312 314 316 313 313 317 321 321 320 319 318 318 322 325 327 328 330 331 327 325 325 327 330 329 332 349 358
303 302 302 302 302 302 302 303 303 303 303 303 303 303 303 303 303 311 313 312 311 311 310 316 321 321 320 318 318 320 322 324 327 329 330 330 327 326 324 324 327 327 339 350 350
302 302 302 301 301 301 301 301 301 302 302 303 303 303 303 303 311 317 314 312 313 314 310 315 319 321 320 319 319 319 320 323 323 323 326 327 327 325 325 325 325 326 332 346 349
301 301 301 301 301 301 301 301 301 301 301 301 301 301 303 306 318 320 313 316 317 318 322 314 318 321 324 323 320 320 320 320 321 322 322 323 323 324 323 324 324 324 325 325 346
301 301 301 301 301 301 301 301 301 301 301 301 301 302 308 313 314 315 313 310 318 321 321 317 319 320 324 325 325 323 322 320 320 320 321 320 321 322 323 322 322 321 322 322 324
301 301 301 301 301 301 301 301 301 301 301 301 301 303 310 314 313 312 311 312 317 320 320 321 320 320 321 324 326 326 324 322 320 320 319 320 320 320 320 320 320 320 321 321 322
300 300 300 300 300 300 301 301 302 302 302 302 303 305 311 312 312 311 311 312 314 318 320 320 320 320 320 323 323 324 326 325 323 322 321 319 320 320 319 319 319 320 320 320 320
300 300 300 300 300 301 302 302 303 303 302 302 304 311 312 311 311 311 311 311 312 317 318 318 319 320 321 321 322 323 325 326 325 324 322 320 320 321 319 319 319 319 320 319 320
299 299 300 300 301 302 304 304 303 303 303 303 311 313 316 314 311 311 315 315 312 312 315 316 318 320 321 323 324 325 326 325 325 325 324 322 322 321 320 321 320 319 320 320 320
299 299 300 300 301 305 305 304 308 308 312 312 313 314 315 314 315 317 319 319 319 314 313 315 315 320 321 324 324 324 326 325 325 326 325 325 323 322 321 322 321 320 320 320 320
299 299 300 300 302 307 307 312 312 316 314 314 315 315 314 313 313 315 318 319 319 318 317 317 318 318 320 321 322 323 324 325 326 326 326 326 326 325 323 321 321 320 320 320 320
300 300 300 300 304 308 310 311 309 307 310 310 310 311 311 310 312 314 312 317 317 320 319 320 319 319 318 319 321 321 323 325 326 327 326 325 325 325 325 324 322 321 320 320 321
300 300 301 300 309 312 311 309 308 309 312 312 314 312 314 314 315 318 314 316 320 319 321 321 321 320 319 319 319 320 322 324 325 325 325 324 324 324 325 324 323 323 322 321 321
300 299 299 301 311 311 312 309 308 311 315 316 314 316 317 317 319 318 317 318 322 322 321 322 321 321 320 320 318 320 320 322 324 325 324 324 325 324 324 324 324 323 322 322 322
299 299 299 305 307 312 311 311 310 311 318 315 319 318 318 318 318 317 317 318 320 320 320 321 321 321 321 321 320 319 319 321 322 323 324 323 325 325 324 324 325 325 323 323 322
299 299 299 310 312 312 311 311 313 320 319 315 316 318 318 317 316 315 314 317 317 318 318 319 317 319 320 322 321 320 320 321 321 321 322 322 323 323 323 324 325 325 324 323 323
300 299 301 306 312 311 312 312 317 318 316 315 315 315 315 315 315 314 314 317 317 318 320 319 318 318 319 322 322 321 322 325 323 322 323 322 322 322 323 324 324 325 324 324 323
300 301 307 310 310 310 311 314 317 315 315 314 315 315 314 314 314 315 317 317 316 316 320 321 321 320 319 320 322 322 321 324 325 324 322 321 323 323 323 323 323 324 323 324 324
299 307 308 312 309 308 310 315 315 313 312 312 313 312 313 312 313 314 316 316 315 317 320 325 322 318 318 320 322 321 321 322 322 323 325 322 323 323 324 323 324 323 324 324 325
302 308 309 308 306 307 312 314 311 309 307 307 308 309 309 309 312 314 315 314 315 318 318 318 323 320 320 320 321 322 322 322 323 328 330 325 324 324 324 324 324 324 324 331 334
305 308 310 307 304 310 313 308 307 304 304 305 306 307 306 307 308 309 311 312 315 318 317 315 320 322 321 323 324 321 324 324 324 323 324 323 324 326 325 325 324 324 335 338 335
304 309 307 305 309 308 308 306 305 304 303 305 306 306 309 311 310 312 313 313 313 314 318 316 317 321 319 320 322 322 321 326 329 328 324 327 333 331 330 331 332 338 338 338 340
304 307 307 304 308 307 307 306 304 305 305 306 307 307 307 310 313 313 314 313 311 314 314 313 318 321 325 323 322 325 322 322 325 326 327 327 331 330 329 330 332 335 334 336 337
306 307 306 304 305 306 307 306 305 305 305 305 306 307 307 309 309 311 310 312 311 312 312 313 315 319 321 321 321 324 324 324 324 330 330 328 327 332 332 332 332 330 332 337 337
305 306 304 305 305 306 306 306 306 306 305 305 307 308 307 310 310 309 310 310 311 312 312 312 315 316 317 317 317 320 325 324 326 327 328 326 326 330 331 331 330 330 332 335 335
303 302 301 302 304 306 307 307 306 306 305 306 307 307 306 308 309 311 311 311 311 312 312 312 315 313 315 317 319 320 323 324 325 325 325 326 327 322 325 328 329 329 330 331 330
300 301 301 302 304 305 307 306 305 304 305 305 306 306 307 308 308 308 308 309 311 311 312 312 313 317 319 320 321 325 326 325 325 325 325 326 327 329 329 327 327 328 327 327 326

GFSSW_850_thetae_162.txt.gz
Theta_e
302 302 302 302 302 302 302 302 302 303 303 303 303 303 303 303 304 305 311 311 314 316 314 315 318 322 322 321 321 320 322 324 326 327 328 329 331 329 328 329 331 332 334 357 355
301 301 301 301 301 301 301 301 302 302 302 302 302 302 302 302 303 308 314 314 314 312 315 315 317 322 323 323 322 322 323 322 325 327 328 328 329 330 328 327 328 331 341 353 357
302 301 301 301 302 302 301 301 301 301 301 301 301 302 302 303 312 319 319 315 313 314 313 314 315 320 324 323 322 321 322 322 324 325 327 328 329 330 329 327 326 327 333 343 350
301 301 301 301 301 302 302 302 301 301 301 302 302 301 301 305 318 322 317 314 317 317 318 316 314 318 323 325 323 321 320 321 322 323 324 325 326 327 327 327 327 326 328 337 347
301 301 301 301 301 301 301 302 302 302 302 302 302 302 302 313 316 315 317 315 313 319 324 323 319 317 321 323 324 324 322 321 321 321 322 322 323 325 325 325 325 325 327 337 342
301 301 301 302 302 302 302 302 302 302 302 302 302 302 309 313 313 315 314 313 316 319 320 321 320 318 320 322 323 324 325 325 323 322 321 322 322 323 323 324 324 324 324 324 325
300 301 301 302 302 303 304 305 305 304 303 303 302 303 311 312 314 314 313 313 313 314 320 321 321 322 322 322 322 323 324 326 327 326 324 322 321 322 321 322 323 323 323 322 323
301 301 301 301 302 304 305 307 305 304 304 303 302 310 311 312 314 314 313 313 313 315 316 319 321 322 322 322 322 323 324 326 326 326 326 324 323 322 321 321 322 322 322 322 322
302 301 302 302 303 303 305 307 308 310 309 308 310 314 317 317 316 314 312 313 313 313 315 318 319 320 321 323 323 323 325 325 325 326 327 324 324 324 322 321 321 321 321 321 321
302 301 302 302 302 303 307 309 313 312 313 313 315 317 317 316 317 315 317 316 318 318 314 316 317 318 320 322 325 323 324 324 325 326 325 326 327 325 323 322 323 322 321 321 321
301 302 302 303 302 306 310 314 314 314 316 316 316 317 315 317 315 316 318 319 319 320 321 316 318 319 318 319 321 322 323 323 324 325 326 327 327 327 325 323 323 323 323 321 321
303 303 304 303 302 312 313 314 312 310 312 312 312 312 313 313 314 314 314 316 319 321 320 320 318 318 319 317 319 320 321 322 323 324 325 327 327 328 328 325 323 323 323 322 322
304 303 305 306 305 314 313 314 311 311 312 312 313 314 314 315 314 313 313 316 316 319 320 321 320 319 320 319 319 318 320 321 321 322 324 326 329 328 326 327 325 323 323 322 321
303 302 302 302 311 312 315 313 312 312 314 316 316 317 317 318 319 318 318 319 316 317 320 321 320 319 319 320 321 320 319 319 320 322 324 324 328 330 327 326 327 326 323 323 321
304 302 304 302 307 316 314 312 312 314 320 318 319 319 319 319 319 318 319 319 319 319 320 322 321 321 320 321 321 322 321 319 319 320 322 323 326 327 327 326 326 327 326 325 323
308 308 301 305 310 314 311 312 313 319 324 317 316 316 317 317 317 316 317 317 317 319 318 320 319 320 320 320 321 321 322 323 320 320 322 322 325 326 327 327 327 326 326 325 324
311 309 305 306 312 310 310 312 317 320 317 317 314 314 315 315 315 314 315 315 315 316 317 318 319 317 317 317 318 319 322 328 323 322 323 321 323 324 326 326 326 326 326 325 325
310 308 310 310 312 309 309 312 317 316 314 311 310 309 310 310 312 313 316 319 317 318 318 319 321 319 319 319 319 320 321 327 326 324 322 322 323 323 324 324 325 324 325 326 325
307 308 310 312 311 307 309 313 315 311 309 307 307 307 307 307 308 308 311 312 314 316 320 322 320 319 318 319 320 321 321 321 326 321 321 321 323 323 324 324 324 324 325 326 326
304 308 312 312 310 307 312 315 313 309 307 306 306 306 307 307 308 309 308 311 315 315 318 320 321 317 317 318 319 320 322 325 325 325 328 326 327 324 324 325 325 326 326 326 326
304 309 310 309 308 309 312 311 309 306 306 306 306 307 308 308 309 309 309 309 311 315 316 316 318 318 318 322 321 321 323 322 324 324 324 327 328 331 331 327 327 326 325 325 328
303 309 309 308 309 311 310 308 307 307 306 307 307 307 308 309 309 309 310 310 313 314 317 314 317 319 318 317 318 321 323 324 327 326 324 327 329 329 332 330 328 329 329 333 343
304 308 309 308 309 309 307 308 307 307 307 307 307 307 309 308 311 311 310 310 311 314 315 315 318 319 322 321 320 323 321 323 323 323 328 330 330 330 330 336 337 340 340 342 343
306 310 308 307 307 307 307 308 308 307 308 306 307 307 308 309 309 309 309 311 312 311 313 314 315 316 319 319 318 320 320 321 324 327 327 325 328 329 326 333 333 337 338 338 340
308 308 305 307 306 306 307 308 309 308 307 306 307 308 308 309 309 309 310 311 311 313 315 315 314 314 315 315 316 317 318 319 322 326 329 327 326 328 331 333 331 334 337 338 339
304 303 303 304 304 306 307 308 307 307 306 307 307 307 307 309 309 310 310 311 311 311 312 315 315 315 315 316 318 319 319 319 320 324 325 325 323 327 329 329 331 334 335 336 336
302 301 302 303 304 306 306 306 306 306 306 305 306 308 309 310 309 309 309 309 310 312 312 314 315 314 316 316 316 324 321 321 322 325 324 329 327 326 329 329 331 331 332 332 329

GFSSW_850_thetae_165.txt.gz
Theta_e
301 301 301 301 301 301 301 301 301 301 301 302 302 303 303 303 305 306 308 311 311 313 314 312 317 320 321 320 319 319 316 318 318 320 322 326 323 327 328 329 330 337 350 350 347
301 301 301 301 300 300 301 301 301 301 301 302 302 302 302 302 303 307 315 315 314 312 312 315 316 317 319 322 321 318 316 318 318 319 321 323 325 326 326 326 327 354 351 349 348
301 301 301 301 301 301 301 302 302 303 302 302 302 302 302 301 307 314 320 316 315 313 314 312 315 315 316 322 322 320 320 319 320 321 321 322 323 324 325 324 326 340 357 351 349
302 302 302 303 303 303 302 302 303 303 303 303 303 302 302 304 312 322 321 316 315 315 314 314 313 314 315 317 322 321 321 321 320 321 320 320 322 321 321 324 326 327 347 356 354
303 303 304 304 303 303 304 304 304 305 305 304 303 302 303 310 311 310 314 316 315 314 317 317 316 314 313 316 319 320 321 322 320 320 320 320 320 320 320 322 324 325 326 346 351
306 306 306 306 305 305 305 305 307 307 305 305 303 302 305 309 312 315 315 314 313 315 321 323 324 319 316 315 316 319 321 322 322 320 319 319 319 320 321 321 324 324 325 339 347
306 306 307 308 308 309 309 307 307 307 308 308 304 302 308 310 311 315 316 314 313 314 318 320 322 322 319 316 319 319 320 320 321 322 322 322 318 319 321 321 322 323 324 326 333
306 306 307 307 308 308 309 309 308 308 310 311 309 306 309 311 312 313 314 314 314 313 313 314 318 320 321 322 321 321 319 320 320 322 322 323 324 321 322 321 321 321 322 323 324
307 307 308 308 307 307 308 311 312 313 312 312 309 312 315 317 316 316 313 314 314 314 314 315 317 319 319 319 320 320 322 320 321 321 322 323 324 322 323 322 320 321 321 322 322
308 308 309 310 308 306 309 313 314 313 314 314 314 314 314 316 317 317 315 315 313 314 314 314 316 315 316 318 322 322 322 321 321 322 322 322 323 323 323 323 322 321 320 321 321
310 308 309 311 309 305 312 314 314 313 313 314 313 314 315 315 317 318 317 319 319 319 319 314 313 316 315 317 319 320 321 321 321 321 322 322 323 323 322 322 322 321 322 321 320
311 309 309 311 308 309 314 314 314 312 311 311 311 311 311 311 312 313 313 317 318 320 319 319 315 314 317 317 317 318 318 318 319 320 320 321 322 323 323 323 323 321 322 322 321
312 311 309 312 309 310 313 314 312 313 312 311 312 312 313 314 313 314 314 314 313 314 316 318 319 320 317 316 317 317 316 317 318 319 319 319 320 320 323 324 323 322 322 322 322
312 311 310 306 308 310 316 312 312 312 312 314 318 317 317 318 318 319 316 314 312 314 315 314 317 319 319 319 317 318 318 318 317 317 319 318 320 319 323 324 324 322 322 322 322
310 308 309 306 306 311 313 311 311 313 320 317 315 314 311 316 317 317 317 319 319 318 318 318 317 320 321 320 320 320 321 321 322 321 318 317 318 319 323 324 324 322 322 322 323
307 307 307 308 307 312 311 309 311 316 321 316 310 309 308 308 309 310 311 314 317 317 318 317 315 318 318 318 319 321 321 322 322 321 324 317 317 318 320 322 323 324 323 323 323
307 307 307 308 309 311 309 309 312 317 314 312 308 308 307 308 307 308 308 308 315 316 316 316 316 316 318 317 317 317 318 325 325 324 324 318 317 318 320 323 324 323 323 323 323
307 307 308 310 312 311 308 309 313 315 311 308 307 306 306 306 306 308 307 307 309 312 313 316 317 316 316 316 318 317 317 320 324 322 322 320 319 318 319 320 323 324 324 324 323
306 307 311 313 313 310 308 312 313 313 308 307 306 306 306 307 307 307 307 308 308 314 317 319 319 316 317 318 318 320 320 319 321 322 325 323 320 318 319 320 320 320 321 320 322
304 306 312 312 311 308 308 312 313 309 308 306 306 306 307 307 308 308 308 308 309 309 314 316 318 315 317 318 318 319 320 323 317 323 322 322 322 320 325 326 321 320 319 320 321
304 305 311 309 309 309 309 311 308 308 308 308 307 306 307 308 308 308 308 309 311 313 314 315 316 315 315 320 320 319 321 321 320 322 322 320 319 324 327 325 326 327 319 321 326
302 306 310 308 309 309 309 307 307 308 308 308 308 307 308 308 308 309 312 310 310 311 314 314 314 315 316 315 318 319 321 321 320 321 322 321 322 325 326 325 325 331 324 344 343
301 306 310 307 308 306 306 306 306 309 309 308 307 307 309 308 308 309 311 309 310 312 314 314 315 313 314 320 316 316 315 321 321 323 323 322 325 322 326 326 326 335 341 343 344
304 308 306 305 305 305 305 306 308 308 307 306 306 307 308 307 307 308 308 309 310 309 312 313 313 314 314 316 315 317 317 318 319 322 322 323 322 323 322 326 327 329 337 342 343
306 305 304 304 303 304 304 306 306 307 306 305 307 307 306 307 307 309 310 310 310 311 313 313 309 313 314 314 313 314 315 316 317 318 323 324 325 326 325 328 324 326 333 336 341
302 302 301 301 303 304 304 305 306 306 305 306 306 306 308 309 309 311 309 308 309 309 310 313 315 313 313 313 315 316 316 316 318 319 320 323 326 325 326 327 328 329 333 336 340
299 300 300 302 302 302 304 305 305 305 305 305 306 307 310 309 308 307 306 307 307 308 308 309 311 311 310 314 314 317 320 320 319 318 319 326 324 323 326 328 329 330 329 326 332

GFSSW_850_thetae_168.txt.gz
Theta_e
301 301 301 302 302 302 303 303 303 303 303 303 303 303 303 303 304 305 307 309 309 310 310 317 318 318 318 319 317 317 313 313 315 318 317 320 320 324 325 326 326 343 349 347 350
303 303 303 303 303 303 303 303 304 305 305 306 306 305 304 304 306 309 315 314 314 311 312 312 312 318 318 320 320 316 312 314 315 316 316 317 318 320 322 322 323 348 347 349 353
304 304 305 305 305 305 306 306 305 305 306 307 306 306 305 303 306 313 319 316 314 314 312 313 315 315 314 317 319 317 318 316 317 318 319 318 319 320 321 320 323 338 345 350 354
307 307 308 308 308 308 309 307 306 306 306 306 305 304 303 303 308 313 317 319 315 314 313 312 313 313 311 313 317 318 318 319 319 320 319 318 319 319 319 320 321 323 346 348 350
308 308 308 309 309 309 310 309 307 308 307 307 307 304 305 307 309 310 312 313 314 314 314 313 313 313 311 312 315 317 319 321 321 320 320 320 319 319 318 319 321 321 343 347 348
310 310 310 311 310 310 310 308 308 309 308 308 308 307 306 308 310 312 315 315 314 313 314 314 316 313 312 312 312 316 317 318 320 320 320 318 318 318 319 319 320 321 324 349 347
312 311 311 311 311 311 310 308 310 311 312 311 310 308 308 312 311 311 316 315 313 313 315 318 320 321 317 315 317 316 315 316 317 318 317 320 319 318 319 319 320 320 321 337 352
312 312 312 311 312 311 312 309 312 313 313 313 312 309 309 313 312 313 313 315 313 313 313 315 318 320 322 320 319 319 318 319 318 318 319 320 321 321 323 321 319 320 321 322 336
312 311 311 311 311 312 310 311 314 314 313 313 312 312 313 314 316 316 315 314 314 314 313 313 313 315 317 317 316 317 321 320 320 318 319 318 321 321 322 322 321 321 321 320 322
309 309 310 309 310 311 310 313 314 313 313 312 313 312 312 315 316 315 316 315 315 313 313 313 313 312 312 315 321 320 320 319 321 319 319 318 320 320 322 323 320 321 322 319 321
307 307 308 307 309 309 310 314 313 313 312 312 311 311 311 312 311 312 312 314 313 313 316 314 311 312 313 314 316 318 319 320 320 319 319 320 320 320 320 320 320 320 321 320 321
307 307 306 305 307 309 311 313 312 312 311 311 311 311 312 312 311 313 313 312 313 318 317 318 316 313 313 314 315 316 318 319 318 318 317 317 318 318 318 319 321 321 321 323 322
306 305 306 305 307 309 311 313 311 311 311 312 313 312 308 313 311 315 317 315 311 313 318 319 318 318 316 314 315 316 316 316 317 317 316 316 317 317 317 319 321 322 322 323 323
305 305 307 306 306 309 314 310 310 310 312 314 311 309 307 310 312 309 307 314 313 317 316 316 315 316 316 318 318 318 316 317 319 318 315 316 318 317 316 317 320 321 321 321 323
304 305 306 304 306 309 310 308 308 311 314 313 308 308 306 307 306 307 307 307 316 314 316 317 317 317 317 318 319 321 319 320 321 320 320 320 315 315 316 318 318 318 322 322 321
303 304 305 306 308 311 309 309 309 312 315 313 308 306 306 306 306 307 307 307 307 313 311 317 316 316 316 317 317 318 319 320 321 320 322 320 318 319 315 316 318 318 321 322 322
303 304 308 309 310 311 308 308 309 314 314 309 307 306 306 306 306 307 307 306 307 311 308 311 312 313 316 317 316 318 320 323 324 324 326 320 320 319 315 315 317 318 319 322 320
303 305 311 312 312 311 310 306 310 315 312 308 307 306 306 306 306 307 307 306 306 307 311 313 313 313 315 316 315 316 317 323 324 325 320 319 322 319 318 316 318 319 320 322 324
303 307 312 311 312 312 309 306 311 312 309 308 306 306 305 306 306 307 306 307 309 310 311 313 317 313 314 315 317 318 318 318 321 320 322 322 320 318 317 318 317 317 319 321 322
304 307 311 308 311 311 305 307 310 310 308 308 307 306 307 307 307 306 307 308 309 309 310 312 313 314 315 316 316 316 318 318 314 321 323 320 320 319 318 320 320 322 321 322 321
305 305 309 309 308 308 306 307 306 306 308 309 308 307 307 308 307 307 307 309 309 308 311 313 315 315 314 317 317 318 319 318 316 319 319 318 316 320 318 323 323 322 323 326 328
303 301 308 307 304 303 302 304 305 307 308 308 307 307 307 308 308 308 309 308 309 309 314 313 312 315 315 314 317 319 316 319 318 319 320 318 318 321 323 324 324 323 324 330 331
303 305 307 304 301 301 303 304 305 306 307 306 305 306 307 306 307 308 307 308 308 309 311 312 314 312 308 317 315 316 315 316 318 319 318 319 318 320 320 320 321 321 322 332 341
304 303 303 303 301 301 302 303 305 305 306 304 305 306 304 306 306 307 307 308 308 308 310 313 312 312 313 313 314 315 314 316 317 321 321 321 320 320 320 321 321 323 323 322 341
304 301 301 299 299 299 300 302 305 305 304 304 305 305 307 308 307 308 308 308 307 309 310 311 310 311 312 313 313 313 314 313 316 318 322 320 321 323 324 323 320 320 322 320 332
300 300 300 299 301 300 300 301 304 304 303 304 304 305 304 309 309 309 307 307 307 306 308 310 314 310 310 312 313 314 313 312 314 317 317 318 320 323 324 324 323 324 320 325 336
297 299 300 300 299 299 299 301 303 302 303 303 304 305 305 306 305 305 305 305 306 306 306 307 306 310 311 312 312 314 320 321 321 315 317 320 320 326 325 326 326 325 327 326 326

GFSSW_850_thetae_171.txt.gz
Theta_e
306 307 307 307 307 307 309 309 309 309 309 309 308 308 308 307 307 307 309 311 309 308 308 317 317 315 316 318 317 315 311 311 313 315 317 318 319 321 322 322 321 323 326 346 349
308 307 308 308 309 309 310 310 310 309 308 309 308 307 307 307 307 309 314 314 314 310 309 315 316 317 318 318 318 314 310 311 312 316 315 317 317 318 319 319 320 322 338 348 350
310 310 310 310 310 310 310 310 309 308 308 308 308 307 307 306 307 312 318 316 314 313 309 312 314 316 316 317 318 316 315 313 315 316 317 316 318 319 318 317 321 320 334 351 352
311 311 311 311 311 311 311 311 310 309 309 310 309 309 308 308 309 312 317 317 316 314 312 313 314 314 310 311 316 317 316 316 316 317 318 316 318 318 318 319 320 320 320 353 353
313 312 312 312 311 311 312 312 312 310 310 311 311 311 309 309 310 310 309 317 315 314 313 312 313 313 310 310 313 314 316 318 318 318 318 319 318 318 319 320 319 320 320 346 352
310 310 310 310 309 310 311 311 311 310 311 313 313 311 310 308 310 311 313 313 314 314 313 313 312 313 312 310 311 314 315 316 318 318 318 318 318 318 320 320 319 319 319 325 352
307 306 306 306 308 307 310 310 310 311 313 313 312 310 310 311 311 310 311 314 315 313 313 313 313 313 314 313 315 313 313 313 312 315 315 319 316 317 319 320 320 318 319 320 348
307 306 305 305 305 305 308 310 310 312 313 313 313 311 311 312 315 316 315 311 315 314 313 314 316 316 319 322 319 316 316 318 316 315 316 319 319 320 320 321 321 321 320 319 323
305 305 304 304 304 305 307 309 312 313 313 313 312 312 312 313 312 312 314 315 313 313 313 313 317 320 315 315 314 315 317 318 319 318 318 317 318 318 320 321 320 322 321 320 320
304 304 304 304 304 305 309 312 313 312 313 311 312 311 311 311 312 312 312 313 313 313 312 311 312 310 310 313 316 317 318 318 319 318 318 318 318 317 319 320 319 321 322 321 321
304 304 304 304 304 306 309 312 311 312 310 311 311 311 311 310 311 313 313 312 313 312 310 312 309 311 310 312 315 316 317 318 318 317 317 318 319 318 317 318 317 320 322 322 321
303 303 303 303 304 307 308 313 311 309 310 310 310 310 309 308 311 309 308 312 311 311 313 316 312 311 310 312 313 314 315 316 316 317 317 317 317 317 316 316 318 319 320 322 323
302 302 303 303 305 306 308 311 309 308 309 310 312 310 306 309 307 306 306 312 313 314 312 315 317 317 314 313 313 314 314 315 315 315 315 315 316 315 315 316 317 319 320 321 323
302 302 303 304 306 308 312 308 308 309 309 312 309 306 306 308 308 306 306 307 312 314 315 315 315 316 316 317 316 316 315 316 319 319 317 313 316 314 314 314 314 317 318 320 321
303 302 304 308 308 310 309 309 309 311 309 311 307 306 306 306 306 306 306 306 309 308 311 313 315 315 317 316 317 317 318 320 319 320 320 320 317 317 313 314 314 314 318 320 321
303 303 307 310 310 310 310 309 309 311 313 311 308 306 305 306 306 306 306 306 306 306 312 312 312 312 315 316 316 318 318 318 319 320 325 321 318 320 317 314 315 315 318 320 321
302 305 311 311 310 311 310 308 307 312 313 311 308 307 305 305 306 306 306 305 305 306 307 306 309 313 314 314 314 316 317 317 323 324 323 319 319 319 317 315 314 314 315 318 319
302 309 309 308 310 312 311 305 310 313 313 309 308 306 305 306 306 306 306 305 306 308 309 307 308 310 310 311 313 314 317 316 321 323 320 319 323 320 317 317 318 317 318 317 318
304 310 308 308 308 310 310 305 309 308 308 308 308 307 306 306 306 305 305 306 308 308 309 309 312 312 313 314 315 316 317 315 319 319 320 319 319 317 316 316 315 313 316 317 317
305 306 307 308 308 307 304 307 306 306 308 308 309 308 308 306 306 306 306 308 309 309 308 310 310 311 314 313 315 317 316 318 316 318 322 319 319 318 316 315 319 320 319 322 322
305 305 307 305 305 305 301 303 305 305 307 308 308 308 307 306 306 306 307 307 310 309 308 310 310 313 312 314 316 316 318 316 314 314 317 317 316 314 315 321 323 321 322 323 324
304 301 306 304 301 300 301 303 304 305 306 306 306 306 306 305 307 307 308 308 306 308 309 309 311 313 314 315 316 317 317 315 314 315 317 316 317 321 321 322 322 321 321 322 322
303 304 304 302 298 298 301 302 303 305 304 304 304 305 305 305 306 306 307 307 307 309 311 310 313 311 309 315 315 315 315 316 317 319 319 317 316 316 318 319 320 319 319 322 322
303 300 302 301 299 298 299 300 301 304 304 302 304 304 303 305 305 308 307 307 307 307 307 309 312 309 308 309 311 314 315 315 315 314 316 320 318 316 316 316 317 318 318 319 322
300 299 299 297 298 298 298 300 301 303 303 302 304 304 305 305 306 307 307 307 306 307 308 310 313 310 311 312 312 313 313 312 313 313 315 314 318 317 317 320 319 322 321 320 321
297 298 298 298 299 298 298 300 301 302 301 302 303 303 304 306 306 306 308 306 306 306 306 304 311 309 309 310 312 313 313 314 313 313 313 314 315 315 315 323 323 322 321 321 323
297 297 298 299 297 297 297 299 300 300 302 302 302 303 305 305 305 305 305 305 305 305 305 306 304 305 308 311 311 314 315 318 320 320 316 315 316 315 324 325 325 326 319 325 328

GFSSW_850_thetae_174.txt.gz
Theta_e
311 311 311 311 311 311 311 311 311 311 310 310 309 310 309 309 310 310 311 310 310 310 307 314 315 308 310 317 316 313 310 309 311 313 315 317 316 320 320 320 321 322 321 332 335
313 312 312 312 311 311 311 312 312 312 312 311 310 310 310 310 310 311 314 314 314 311 307 312 316 313 316 317 317 311 308 309 310 313 315 315 317 318 319 318 320 322 321 342 347
311 310 310 310 310 310 310 311 311 311 311 311 310 311 311 311 309 310 316 315 314 313 308 313 315 316 316 316 317 315 313 311 313 314 315 315 315 318 317 317 320 321 320 336 351
307 306 306 306 306 307 307 308 310 310 310 310 311 312 312 311 307 310 314 316 315 312 308 314 314 315 311 312 316 316 314 314 314 314 316 315 317 317 318 318 320 320 320 326 346
306 305 305 304 304 304 305 305 308 309 309 311 312 313 312 310 311 310 309 315 315 313 311 311 313 312 309 309 312 312 314 317 317 316 316 316 315 315 317 318 318 319 320 319 327
304 304 304 303 303 304 304 304 306 309 310 311 313 313 311 309 310 309 311 314 316 315 313 312 312 313 311 310 310 312 312 314 316 316 316 316 316 318 319 319 319 320 319 320 320
304 303 303 303 303 304 304 305 307 309 311 313 313 312 311 311 312 314 313 311 313 314 314 313 312 312 312 311 313 312 315 314 313 313 314 317 316 318 319 319 319 319 319 320 320
303 303 303 303 303 303 305 308 310 312 312 312 312 311 310 311 313 311 312 313 313 314 314 314 314 313 315 318 318 316 314 316 315 313 313 316 316 317 319 319 319 320 321 321 320
303 302 302 302 303 304 306 310 312 311 312 312 311 311 311 311 309 311 311 311 312 312 314 315 316 314 316 315 310 312 315 317 317 315 317 314 315 316 319 319 318 320 321 322 322
302 302 303 303 303 304 307 311 312 311 312 310 311 310 310 310 309 308 310 311 311 313 315 315 313 311 309 310 311 313 315 315 317 317 316 316 316 316 317 317 318 319 320 321 322
302 303 303 303 304 305 307 312 310 310 308 309 310 310 311 308 307 306 309 311 312 311 308 309 308 308 308 311 312 313 314 316 316 315 316 317 317 316 315 316 314 317 318 320 321
303 303 303 303 306 306 309 311 309 308 308 308 310 309 307 308 308 306 307 310 311 310 310 313 310 309 309 310 311 312 313 313 313 313 314 315 316 315 315 315 315 316 317 319 320
303 302 303 307 307 311 310 308 308 308 308 308 311 307 306 306 306 305 305 306 311 311 314 313 312 313 312 311 311 311 312 312 313 314 313 314 315 314 314 314 315 316 317 318 319
302 302 306 309 309 310 309 309 308 309 306 309 307 306 306 306 307 306 305 305 309 312 311 310 313 314 314 316 314 314 312 313 315 318 316 313 316 313 312 312 312 313 316 317 319
302 304 310 310 310 310 309 309 308 310 306 308 307 307 306 305 306 306 306 305 308 307 306 308 308 309 313 314 315 315 315 315 317 320 321 319 317 316 311 313 312 311 314 317 318
303 306 309 309 309 310 310 310 308 310 312 312 309 307 306 305 306 306 306 305 305 305 306 306 307 311 312 313 315 315 317 317 318 318 323 319 319 317 316 313 313 312 315 317 318
304 307 308 308 307 310 311 310 304 311 310 311 308 307 307 305 306 306 305 304 306 305 306 306 307 306 310 313 314 312 317 316 314 316 318 317 319 319 316 314 314 315 314 317 317
305 305 308 308 308 308 309 304 309 309 309 307 307 307 306 306 305 305 305 304 306 306 306 308 308 307 309 312 313 313 314 315 310 312 317 318 322 319 317 317 317 317 317 317 318
305 307 308 307 307 307 309 304 307 306 306 307 308 308 306 306 305 304 304 305 307 306 304 308 309 308 309 311 311 313 313 314 315 316 315 316 316 315 315 316 314 314 316 317 317
305 308 304 304 305 307 302 306 304 305 307 307 308 308 308 306 305 305 305 306 308 308 307 309 310 309 310 311 313 315 314 317 314 318 317 315 316 315 314 314 315 315 316 317 317
304 306 304 304 303 304 300 301 303 304 304 307 307 306 307 305 304 305 306 306 307 308 308 308 309 310 310 313 313 315 317 316 314 313 316 316 315 312 314 313 318 319 320 321 321
303 300 303 301 299 298 299 300 302 304 304 304 303 304 306 304 303 305 306 307 306 307 308 309 308 308 314 312 314 315 316 314 315 314 316 317 316 317 317 320 320 318 319 318 318
302 303 302 300 296 297 298 300 301 303 303 303 302 304 304 304 305 305 305 306 306 306 308 308 310 310 311 313 314 315 315 317 315 317 317 317 315 314 317 317 317 318 318 318 319
300 298 300 299 298 298 298 299 300 301 303 302 302 303 304 303 304 306 305 305 307 306 307 308 309 312 310 310 310 312 313 315 312 313 312 315 315 315 315 315 314 316 319 321 321
298 297 298 295 297 296 297 298 300 301 301 301 303 304 303 304 304 305 306 307 306 306 308 308 312 311 310 311 311 311 312 312 312 312 313 312 312 312 313 313 314 319 321 321 323
297 297 297 297 298 296 296 299 299 299 299 301 302 302 302 304 305 307 306 306 307 306 306 304 303 305 308 309 310 311 311 311 312 312 312 312 312 312 312 312 313 316 322 323 322
295 297 297 297 296 296 296 298 298 297 299 300 301 301 302 304 304 303 304 304 305 306 305 305 307 306 308 310 310 313 314 313 314 312 315 316 313 312 313 321 322 320 321 321 324